KLEX Airport Diagram

We have created a template for each of the higher traffic airports in the vZID airspace. They include KCMH, KCRW, KCVG, KDAY, KIND, KLEX and KSDF. You wil find usefull information including the airport diagram, weather, and specific airport procedures.

KLEX Weather

[Source: ADDS]
METAR
KLEX 260554Z 19005KT 10SM CLR 20/16 A3012 RMK AO2 SLP189 T02000156 10267 20200 51010 =
KLEX 260520Z 2606/2706 19005KT P6SM SCT250 FM261400 22007KT P6SM FEW040 FM270100 20004KT P6SM FEW250
TAF
KLEX 260520Z 2606/2706 19005KT P6SM SCT250 FM261400 22007KT P6SM FEW040 FM270100 20004KT P6SM FEW250 =

KLEX Operations

Calm wind runway at KLEX is Runway 22, up to and including 10kts.

Default scenery shows Runway 8/26, which crosses Runway 22. When taxiing to Runway 22, clearance to cross Runway 26 not required.

Updated scenery available at www.flightsim.com.

 

JSN Epic template designed by JoomlaShine.com